OCEANSAT-2

Last updated on Mon Sep 21 2026 00:02:45 GMT+0000 (Coordinated Universal Time)

1 35931U 09051A 26263.56152390 -.00000099 00000+0 -42125-4 0 9993 2 35931 98.2427 240.9303 0015092 329.5487 30.4802 13.99665798892673
UTC large
Height (km)
Speed (km/s)
/
Latitude / Longitude
Inclination (degrees)
Orbital Period (minutes)
Azimuth
Elevation
Range (km)
Doppler Factor

Next 0 passes for location: London (51.5072 / 0.1276)

No passes found over London.
OCEANSAT-2